Content
SEND FEEDBACK

Daily
Averages
Monthly
Summary
United States of America

MERRITT, MICHIGAN


Home > North America > United States > Michigan
Elevation: 1136 feet     Latitude: 44 19N     Longitude: 084 52W

WEATHER
 
SELECT A DAY
Number of Records: 246,795;   Date Range: 1/1/95 - 9/16/14
 
SHARE

PRINT THIS DATA

[ ← Previous Day ]
WEATHER ALMANAC - JANUARY 31, 2013
[ Next Day → ]
[ °C ]   °F
Weather ElementAverageHighLow
Temperature17.7 °F21.2 °F (2:36 am)14 °F (7:53 pm)
Dewpoint11.3 °F16 °F (2:53 am)7 °F (3:53 pm)
Humidity76.4 %88 % (3:53 am)62 % (12:53 pm)
Barometer29.50 in29.85 in (11:53 pm)29.25 in (2:36 am)
Wind Speed15.5 mph20.7 mph (6:53 am)
Wind Gust29.9 mph (2:53 am)
Weather ElementAverage
Visibility4.1 mi
Wind DirectionWNW (285.6 °)

Weather ElementTotal
Precipitation0.24 in
Heating Degree Days47.4 (Base 65)
Averaged from 52 records on January 31, 2013
WEATHER CONDITIONS BREAKOUT
WIND DIRECTION BREAKOUT
WEATHER BY HOUR - JANUARY 31, 2013
[ °C ]   °F
Local TimeTemperatureDewpointHumidityBarometerVisibilityWind DirectionWind SpeedGust SpeedPrecipitationEventsConditions
1:53 AM21.0 °F15.1 °F78 %29.27 in6.0 miWNW (300°)17.3 mph26.5 mph0.00 inSnowLight Snow
2:36 AM21.2 °F15.8 °F80 %29.25 in1.8 miWNW (290°)16.1 mph20.7 mph0.00 inSnowLight Snow
2:39 AM21.2 °F15.8 °F80 %29.25 in1.2 miWNW (290°)13.8 mph0.00 inSnowLight Snow
2:42 AM19.4 °F15.8 °F86 %29.25 in0.8 miWNW (290°)13.8 mph0.00 inSnowLight Snow
2:53 AM19.9 °F16.0 °F85 %29.30 in0.5 miWNW (300°)19.6 mph29.9 mph0.01 inFog-SnowSnow
3:00 AM19.4 °F15.8 °F86 %29.26 in0.5 miWNW (300°)15.0 mph29.9 mph0.00 inFog-SnowSnow
3:21 AM19.4 °F15.8 °F86 %29.27 in1.0 miWNW (290°)12.7 mph23.0 mph0.02 inSnowLight Snow
3:28 AM19.4 °F15.8 °F86 %29.27 in1.2 miWNW (300°)15.0 mph0.02 inSnowLight Snow
3:31 AM19.4 °F15.8 °F86 %29.27 in0.8 miWNW (300°)15.0 mph0.02 inSnowLight Snow
3:40 AM19.4 °F15.8 °F86 %29.27 in0.5 miWNW (300°)13.8 mph20.7 mph0.02 inFog-SnowSnow
3:47 AM19.4 °F15.8 °F86 %29.28 in0.2 miWNW (300°)12.7 mph20.7 mph0.03 inFog-SnowHeavy Snow
3:53 AM19.0 °F16.0 °F88 %29.32 in0.2 miWNW (290°)12.7 mph20.7 mph0.04 inFog-SnowHeavy Snow
4:10 AM19.4 °F15.8 °F86 %29.29 in0.5 miWest (280°)13.8 mph21.9 mph0.01 inFog-SnowSnow
4:17 AM19.4 °F15.8 °F86 %29.29 in0.8 miWNW (290°)17.3 mph23.0 mph0.01 inSnowLight Snow
4:20 AM19.4 °F15.8 °F86 %29.29 in1.2 miWNW (290°)17.3 mph25.3 mph0.02 inSnowLight Snow
4:31 AM19.4 °F14.0 °F80 %29.30 in1.5 miWNW (290°)16.1 mph27.6 mph0.02 inSnowLight Snow
4:53 AM18.0 °F12.9 °F81 %29.36 in1.8 miWest (280°)19.6 mph26.5 mph0.02 inSnowLight Snow
5:03 AM17.6 °F12.2 °F79 %29.32 in2.5 miWest (280°)16.1 mph25.3 mph0.00 inSnowLight Snow
5:23 AM17.6 °F12.2 °F79 %29.33 in3.0 miWest (280°)19.6 mph27.6 mph0.00 inSnowLight Snow
5:53 AM18.0 °F12.0 °F78 %29.39 in3.0 miWest (280°)15.0 mph29.9 mph0.00 inSnowLight Snow
6:53 AM17.1 °F10.9 °F77 %29.43 in5.0 miWest (280°)20.7 mph28.8 mph0.00 inSnowLight Snow
7:53 AM16.0 °F10.0 °F77 %29.47 in5.0 miWest (280°)19.6 mph28.8 mph0.00 inSnowLight Snow
8:34 AM17.6 °F10.4 °F73 %29.44 in7.0 miWest (280°)19.6 mph28.8 mph0.00 inOvercast
8:50 AM17.6 °F10.4 °F73 %29.45 in5.0 miWest (280°)19.6 mph27.6 mph0.00 inSnowLight Snow
8:53 AM17.1 °F10.0 °F74 %29.50 in6.0 miWest (280°)18.4 mph27.6 mph0.00 inSnowLight Snow
9:45 AM17.6 °F8.6 °F68 %29.48 in8.0 miWest (280°)18.4 mph25.3 mph0.00 inOvercast
9:53 AM17.1 °F9.0 °F71 %29.54 in10.0 miWNW (290°)16.1 mph23.0 mph0.00 inOvercast
10:53 AM18.0 °F8.1 °F65 %29.58 in8.0 miWNW (290°)17.3 mph26.5 mphOvercast
11:53 AM18.0 °F10.0 °F71 %29.60 in2.5 miWest (280°)18.4 mph27.6 mph0.00 inSnowLight Snow
12:17 PM17.6 °F10.4 °F73 %29.55 in4.0 miWNW (290°)12.7 mph25.3 mph0.00 inSnowLight Snow
12:33 PM17.6 °F8.6 °F68 %29.55 in2.5 miWest (280°)16.1 mph24.2 mph0.00 inSnowLight Snow
12:39 PM17.6 °F8.6 °F68 %29.55 in5.0 miWest (280°)18.4 mph24.2 mph0.00 inSnowLight Snow
12:53 PM19.0 °F8.1 °F62 %29.61 in7.0 miWest (280°)19.6 mph28.8 mph0.00 inSnowLight Snow
1:26 PM17.6 °F10.4 °F73 %29.56 in2.5 miWest (280°)13.8 mph24.2 mph0.00 inSnowLight Snow
1:35 PM17.6 °F10.4 °F73 %29.56 in4.0 miWest (280°)15.0 mph21.9 mph0.00 inSnowLight Snow
1:45 PM17.6 °F8.6 °F68 %29.57 in6.0 miWest (270°)18.4 mph24.2 mph0.00 inHaze
1:53 PM18.0 °F10.9 °F74 %29.62 in3.0 miWest (280°)16.1 mph23.0 mph0.00 inSnowLight Snow
2:04 PM17.6 °F10.4 °F73 %29.57 in8.0 miWest (270°)16.1 mph0.00 inMostly Cloudy
2:27 PM17.6 °F8.6 °F68 %29.58 in1.8 miWest (280°)17.3 mph25.3 mph0.00 inSnowLight Snow
2:36 PM17.6 °F8.6 °F68 %29.58 in3.0 miWest (270°)15.0 mph23.0 mph0.00 inSnowLight Snow
2:53 PM18.0 °F9.0 °F68 %29.65 in7.0 miWest (280°)18.4 mph26.5 mph0.00 inOvercast
3:53 PM18.0 °F7.0 °F62 %29.68 in10.0 miWest (280°)15.0 mph23.0 mph0.00 inOvercast
4:53 PM17.1 °F8.1 °F68 %29.71 in3.0 miWest (280°)13.8 mph23.0 mph0.00 inSnowLight Snow
5:53 PM15.1 °F7.0 °F70 %29.74 in10.0 miWNW (290°)17.3 mph24.2 mph0.00 inMostly Cloudy
6:53 PM15.1 °F7.0 °F70 %29.77 in10.0 miWest (280°)12.7 mphMostly Cloudy
7:53 PM14.0 °F8.1 °F77 %29.78 in10.0 miWest (280°)12.7 mph20.7 mphMostly Cloudy
8:53 PM14.0 °F8.1 °F77 %29.80 in10.0 miWest (280°)11.5 mphOvercast
9:53 PM14.0 °F9.0 °F80 %29.82 in5.0 miWNW (290°)11.5 mph0.00 inSnowLight Snow
10:53 PM15.1 °F9.0 °F77 %29.83 in7.0 miWNW (300°)9.2 mph0.00 inSnowLight Snow
11:26 PM14.0 °F8.6 °F79 %29.78 in3.0 miWNW (300°)9.2 mph0.00 inSnowLight Snow
11:53 PM14.0 °F9.0 °F80 %29.85 in4.0 miWNW (290°)8.1 mph0.00 inSnowLight Snow
11:59 PM14.0 °F8.6 °F79 %29.79 in2.5 miWest (280°)9.2 mph0.00 inSnowLight Snow
Hourly data recorded from KHTL, located miles away from Merritt, Michigan







STORIES FROM OUR PARTNERS